User: anonymous   Login
Location: Unspecified
(0.0000°N, 0.0000°E)
Time: 04:02:40
(UTC+00:00)
Language:

PCSat - Orbit

View from above orbital plane
View from above orbital plane
View from above satellite
View from above satellite

Ground track
Ground track

The orbit data is extracted from the following two-line orbital elements,

1 26931U 01043C   19082.87663377 -.00000040  00000-0  16559-4 0  9991
2 26931  67.0504 227.7019 0005490 275.6006  84.4469 14.30535904912558
Epoch (UTC): 23 March 2019 21:02:21
Eccentricity: 0.0005490
inclination: 67.0504°
perigee height: 786 km
apogee height: 794 km
right ascension of ascending node: 227.7019°
argument of perigee: 275.6006°
revolutions per day: 14.30535904
mean anomaly at epoch: 84.4469°
orbit number at epoch: 91255

The dashed part of the orbit path shows where the satellite is in the earth's shadow,  

DLR